period_start,C,m1,H,J0,J1,J2,J3,J4,J5,JA,JB,JC,JD,JJ,JK,JN,#
2018-09-08 00:04:29,0.00,0.20,0.00,19.67,23.32,26.38,14.14,47.27,1017.44,2043.62,3215.49,2857.00,3303.37,599.90,603.27,6.61,0000 0000 0000 0000 000000
2018-09-08 00:09:30,0.04,0.20,0.00,19.67,23.32,26.35,14.03,47.21,1017.36,2043.65,3215.16,2857.00,3303.11,599.22,602.47,6.66,0000 0000 0000 0000 000000
2018-09-08 00:14:31,-0.01,0.20,0.00,19.67,23.32,26.33,14.09,47.31,1017.32,2043.80,3215.00,2856.99,3303.01,599.86,603.13,6.71,0000 0000 0000 0000 000000
2018-09-08 00:19:33,0.01,0.20,0.00,19.67,23.32,26.37,14.19,47.22,1017.41,2043.90,3215.00,2856.99,3303.01,600.43,603.51,6.76,0000 0000 0000 0000 000000
2018-09-08 00:24:34,0.00,0.20,0.00,19.67,23.31,26.34,14.11,47.27,1017.39,2043.89,3214.95,2856.98,3303.00,599.94,603.14,6.82,0000 0000 0000 0000 000000
2018-09-08 00:29:35,0.01,0.20,0.00,19.67,23.30,26.36,14.12,47.27,1017.30,2043.93,3214.70,2856.95,3302.98,600.23,603.42,6.87,0000 0000 0000 0000 000000
2018-09-08 00:34:36,0.01,0.20,0.00,19.67,23.30,26.33,14.03,47.20,1017.22,2043.95,3214.29,2856.94,3302.97,599.76,602.94,6.92,0000 0000 0000 0000 000000
2018-09-08 00:39:37,-0.00,0.20,0.00,19.67,23.30,26.30,14.17,47.21,1017.22,2043.94,3214.27,2856.95,3302.98,599.93,603.05,6.97,0000 0000 0000 0000 000000
2018-09-08 00:44:39,0.00,0.20,0.00,19.67,23.30,26.35,14.07,47.18,1017.14,2043.93,3214.11,2856.92,3302.89,599.93,603.07,7.02,0000 0000 0000 0000 000000
2018-09-08 00:49:40,-0.00,0.20,0.00,19.66,23.30,26.32,14.11,47.27,1017.11,2043.94,3214.07,2856.94,3302.86,600.21,603.27,7.07,0000 0000 0000 0000 000000
2018-09-08 00:54:42,0.00,0.20,0.00,19.66,23.30,26.36,14.16,47.33,1017.11,2043.92,3214.03,2856.89,3302.54,599.83,602.96,7.12,0000 0000 0000 0000 000000
2018-09-08 00:59:43,0.00,0.20,0.00,19.67,23.30,26.35,14.10,47.23,1017.11,2043.93,3214.00,2856.87,3302.19,599.95,602.98,7.17,0000 0000 0000 0000 000000
2018-09-08 01:04:44,0.00,0.20,0.00,19.67,23.29,26.31,14.14,47.25,1017.11,2043.87,3214.00,2856.64,3302.03,600.21,603.23,7.22,0000 0000 0000 0000 000000
2018-09-08 01:09:45,0.00,0.20,0.00,19.67,23.29,26.34,14.07,47.32,1017.11,2043.93,3214.00,2856.72,3302.02,599.73,602.89,7.27,0000 0000 0000 0000 000000
2018-09-08 01:14:47,0.00,0.20,0.00,19.67,23.29,26.31,14.13,47.36,1017.11,2043.93,3214.00,2856.72,3302.01,600.05,603.18,7.32,0000 0000 0000 0000 000000
2018-09-08 01:19:48,-0.02,0.20,0.00,19.67,23.29,26.34,14.09,47.23,1017.11,2043.80,3214.00,2856.67,3302.00,599.83,602.90,7.37,0000 0000 0000 0000 000000
2018-09-08 01:24:49,-0.01,0.20,0.00,19.68,23.29,26.33,14.09,47.23,1017.11,2043.61,3213.99,2856.54,3302.00,599.83,602.87,7.42,0000 0000 0000 0000 000000
2018-09-08 01:29:50,0.01,0.20,0.00,19.68,23.29,26.32,14.13,47.34,1017.11,2043.69,3213.98,2856.53,3302.00,600.00,603.02,7.47,0000 0000 0000 0000 000000
2018-09-08 01:34:51,0.00,0.20,0.00,19.68,23.29,26.35,14.03,47.26,1017.11,2043.72,3213.97,2856.51,3301.99,599.93,602.96,7.52,0000 0000 0000 0000 000000
2018-09-08 01:39:53,0.00,0.20,0.00,19.69,23.29,26.34,14.10,47.22,1017.11,2043.81,3213.94,2856.64,3301.99,600.15,603.19,7.57,0000 0000 0000 0000 000000
2018-09-08 01:44:54,0.03,0.20,0.00,19.67,23.29,26.31,14.08,47.23,1017.11,2043.86,3213.31,2856.15,3301.85,599.91,602.90,7.62,0000 0000 0000 0000 000000
2018-09-08 01:49:55,0.01,0.21,0.00,19.67,23.29,26.34,14.08,47.29,1017.11,2043.93,3213.05,2856.04,3301.42,600.03,603.06,7.67,0000 0000 0000 0000 000000
2018-09-08 01:54:57,-0.00,0.21,0.00,19.69,23.29,26.31,14.11,47.33,1017.11,2043.84,3212.99,2856.00,3301.03,600.02,602.95,7.72,0000 0000 0000 0000 000000
2018-09-08 01:59:58,-0.01,0.21,0.00,19.68,23.29,26.30,14.15,47.28,1017.12,2043.79,3212.98,2855.99,3301.00,599.95,603.12,7.77,0000 0000 0000 0000 000000
2018-09-08 02:04:59,0.01,0.21,0.00,19.69,23.29,26.32,14.14,47.25,1017.12,2043.76,3212.97,2855.99,3300.99,599.68,602.72,7.82,0000 0000 0000 0000 000000
2018-09-08 02:10:01,0.00,0.21,0.00,19.69,23.29,26.34,14.10,47.32,1017.11,2043.88,3212.85,2855.98,3300.98,600.09,603.09,7.87,0000 0000 0000 0000 000000
2018-09-08 02:15:02,0.00,0.21,0.00,19.69,23.29,26.29,14.13,47.23,1017.11,2043.81,3212.64,2855.98,3300.97,600.00,602.97,7.92,0000 0000 0000 0000 000000
2018-09-08 02:20:03,-0.03,0.20,0.00,19.69,23.29,26.30,14.15,47.23,1017.11,2043.51,3212.22,2855.98,3300.84,600.07,603.20,7.97,0000 0000 0000 0000 000000
2018-09-08 02:25:05,0.05,0.21,0.00,19.69,23.29,26.32,14.17,47.26,1017.11,2043.75,3212.05,2855.78,3300.58,600.33,603.35,8.02,0000 0000 0000 0000 000000
2018-09-08 02:30:06,-0.00,0.21,0.00,19.69,23.29,26.33,14.09,47.33,1017.11,2043.75,3212.01,2855.66,3300.18,599.95,603.15,8.07,0000 0000 0000 0000 000000
2018-09-08 02:35:07,0.01,0.21,0.00,19.69,23.29,26.34,14.13,47.32,1017.11,2043.82,3212.00,2855.99,3300.05,599.92,602.98,8.12,0000 0000 0000 0000 000000
2018-09-08 02:40:08,0.00,0.21,0.00,19.69,23.29,26.30,14.15,47.33,1017.11,2043.84,3211.99,2855.98,3300.01,600.21,603.11,8.17,0000 0000 0000 0000 000000
2018-09-08 02:45:10,-0.01,0.21,0.00,19.69,23.30,26.29,14.09,47.31,1017.12,2043.76,3211.99,2855.98,3300.00,599.84,602.77,8.22,0000 0000 0000 0000 000000
2018-09-08 02:50:11,-0.00,0.21,0.00,19.70,23.30,26.30,14.18,47.42,1017.12,2043.61,3211.98,2855.98,3300.00,600.16,603.10,8.27,0000 0000 0000 0000 000000
2018-09-08 02:55:13,0.02,0.21,0.00,19.72,23.30,26.29,14.15,47.27,1017.15,2043.85,3211.96,2855.98,3299.99,600.25,603.28,8.32,0000 0000 0000 0000 000000
2018-09-08 03:00:14,-0.00,0.21,0.00,19.72,23.30,26.29,14.12,47.28,1017.14,2043.90,3211.93,2855.97,3299.98,600.00,602.84,8.37,0000 0000 0000 0000 000000
2018-09-08 03:05:15,-0.00,0.21,0.00,19.72,23.30,26.32,14.14,47.38,1017.17,2043.84,3211.80,2855.97,3299.98,600.21,603.26,8.42,0000 0000 0000 0000 000000
2018-09-08 03:10:16,-0.02,0.21,0.00,19.72,23.31,26.25,14.17,47.27,1017.17,2043.51,3211.48,2855.97,3299.92,600.13,603.26,8.47,0000 0000 0000 0000 000000
2018-09-08 03:15:17,-0.01,0.21,0.00,19.72,23.32,26.26,14.09,47.38,1017.26,2043.41,3211.37,2855.96,3299.84,599.56,602.74,8.52,0000 0000 0000 0000 000000
2018-09-08 03:20:19,0.01,0.21,0.00,19.74,23.32,26.25,14.13,47.38,1017.42,2043.28,3211.10,2855.95,3299.40,600.08,603.31,8.57,0000 0000 0000 0000 000000
2018-09-08 03:25:20,0.00,0.21,0.00,19.74,23.32,26.33,14.09,47.26,1017.43,2043.43,3211.05,2855.96,3299.22,599.94,603.09,8.62,0000 0000 0000 0000 000000
2018-09-08 03:30:21,0.01,0.21,0.00,19.74,23.32,26.28,14.07,47.33,1017.46,2043.30,3211.00,2855.80,3299.05,599.91,603.23,8.67,0000 0000 0000 0000 000000
2018-09-08 03:35:22,-0.01,0.21,0.00,19.74,23.32,26.33,14.17,47.32,1017.37,2043.33,3211.01,2855.83,3299.04,600.48,603.63,8.72,0000 0000 0000 0000 000000
2018-09-08 03:40:23,-0.01,0.21,0.00,19.75,23.32,26.30,14.04,47.32,1017.37,2043.12,3211.00,2855.54,3299.00,600.00,603.24,8.77,0000 0000 0000 0000 000000
2018-09-08 03:45:25,0.01,0.21,0.00,19.74,23.32,26.29,14.12,47.26,1017.44,2043.09,3211.00,2855.46,3299.00,600.18,603.22,8.82,0000 0000 0000 0000 000000
2018-09-08 03:50:26,-0.00,0.21,0.00,19.74,23.32,26.29,14.18,47.48,1017.38,2043.13,3211.00,2855.30,3299.00,600.34,603.36,8.87,0000 0000 0000 0000 000000
2018-09-08 03:55:27,0.01,0.21,0.00,19.74,23.32,26.32,14.11,47.39,1017.30,2043.20,3210.99,2855.29,3299.00,600.04,603.09,8.92,0000 0000 0000 0000 000000
2018-09-08 04:00:29,0.01,0.21,0.00,19.74,23.33,26.29,14.08,47.25,1017.14,2043.29,3210.97,2855.19,3298.99,599.88,602.90,8.97,0000 0000 0000 0000 000000
2018-09-08 04:05:30,0.01,0.21,0.00,19.75,23.34,26.29,14.05,47.26,1017.13,2043.32,3210.95,2855.08,3298.98,599.64,602.53,9.02,0000 0000 0000 0000 000000
2018-09-08 04:10:31,-0.01,0.21,0.00,19.76,23.34,26.31,14.07,47.21,1017.17,2043.25,3210.96,2855.09,3298.98,600.05,603.03,9.07,0000 0000 0000 0000 000000
2018-09-08 04:15:32,-0.02,0.21,0.00,19.77,23.34,26.30,14.09,47.28,1017.15,2043.29,3210.98,2855.19,3298.98,599.83,602.70,9.12,0000 0000 0000 0000 000000
2018-09-08 04:20:33,-0.00,0.21,0.00,19.77,23.34,26.32,14.13,47.50,1017.13,2043.12,3210.97,2855.12,3298.97,599.93,602.72,9.18,0000 0000 0000 0000 000000
2018-09-08 04:25:35,0.01,0.21,0.00,19.77,23.34,26.31,14.13,47.42,1017.20,2043.15,3210.77,2855.04,3298.95,599.90,602.87,9.23,0000 0000 0000 0000 000000
2018-09-08 04:30:36,-0.01,0.21,0.00,19.77,23.35,26.28,14.01,47.46,1017.21,2043.14,3210.91,2855.07,3298.95,599.81,602.76,9.28,0000 0000 0000 0000 000000
2018-09-08 04:35:38,0.00,0.21,0.00,19.77,23.35,26.30,14.09,47.33,1017.32,2043.09,3210.70,2855.03,3298.89,599.80,602.77,9.33,0000 0000 0000 0000 000000
2018-09-08 04:40:39,0.02,0.21,0.00,19.77,23.35,26.30,14.10,47.34,1017.53,2043.17,3210.36,2855.03,3298.70,599.75,602.75,9.38,0000 0000 0000 0000 000000
2018-09-08 04:45:40,-0.00,0.21,0.00,19.77,23.36,26.30,14.08,47.29,1017.57,2043.05,3210.06,2855.01,3298.18,600.03,603.21,9.43,0000 0000 0000 0000 000000
2018-09-08 04:50:41,0.00,0.21,0.00,19.79,23.37,26.33,14.12,47.38,1017.59,2043.11,3210.05,2855.00,3298.09,599.94,603.12,9.48,0000 0000 0000 0000 000000
2018-09-08 04:55:43,-0.01,0.21,0.00,19.79,23.37,26.31,14.10,47.33,1017.58,2043.06,3210.00,2855.00,3298.03,599.91,602.96,9.53,0000 0000 0000 0000 000000
2018-09-08 05:00:44,-0.00,0.21,0.00,19.80,23.37,26.31,14.09,47.30,1017.59,2043.03,3210.01,2855.00,3298.01,600.01,602.94,9.58,0000 0000 0000 0000 000000
2018-09-08 05:05:45,0.00,0.21,0.00,19.82,23.37,26.35,14.01,47.28,1017.59,2043.02,3210.01,2855.00,3298.03,599.86,602.95,9.63,0000 0000 0000 0000 000000
2018-09-08 05:10:46,0.00,0.21,0.00,19.80,23.37,26.33,14.04,47.32,1017.59,2043.05,3210.00,2855.00,3298.01,599.61,602.81,9.68,0000 0000 0000 0000 000000
2018-09-08 05:15:48,0.00,0.21,0.00,19.82,23.37,26.32,14.08,47.36,1017.59,2043.05,3210.00,2855.00,3298.00,600.00,603.07,9.73,0000 0000 0000 0000 000000
2018-09-08 05:20:49,0.00,0.21,0.00,19.82,23.37,26.33,14.10,47.38,1017.59,2043.05,3209.98,2854.99,3298.00,600.34,603.32,9.78,0000 0000 0000 0000 000000
2018-09-08 05:25:50,0.00,0.21,0.00,19.82,23.37,26.31,14.07,47.35,1017.59,2043.04,3209.98,2854.99,3298.00,599.94,603.03,9.83,0000 0000 0000 0000 000000
2018-09-08 05:30:52,0.00,0.21,0.00,19.82,23.38,26.36,14.05,47.35,1017.59,2043.02,3209.98,2854.98,3298.00,599.97,603.00,9.88,0000 0000 0000 0000 000000
2018-09-08 05:35:53,0.00,0.21,0.00,19.82,23.39,26.35,14.14,47.33,1017.60,2043.04,3209.98,2854.98,3297.98,599.96,603.12,9.93,0000 0000 0000 0000 000000
2018-09-08 05:40:54,-0.00,0.21,0.00,19.82,23.39,26.34,14.15,47.40,1017.60,2043.04,3209.97,2854.99,3297.96,600.16,603.09,9.98,0000 0000 0000 0000 000000
2018-09-08 05:45:55,0.00,0.21,0.00,19.83,23.39,26.32,14.18,47.41,1017.59,2043.02,3209.94,2854.98,3297.97,600.13,603.19,10.03,0000 0000 0000 0000 000000
2018-09-08 05:50:56,-0.00,0.21,0.00,19.84,23.39,26.35,14.09,47.35,1017.61,2043.01,3209.92,2854.98,3297.97,599.81,602.80,10.08,0000 0000 0000 0000 000000
2018-09-08 05:55:58,0.00,0.21,0.00,19.84,23.40,26.33,14.13,47.37,1017.61,2043.01,3209.87,2854.97,3297.86,600.31,603.23,10.13,0000 0000 0000 0000 000000
2018-09-08 06:00:59,0.01,0.21,0.00,19.84,23.40,26.35,14.10,47.34,1017.61,2043.00,3209.41,2854.95,3297.48,599.95,603.00,10.18,0000 0000 0000 0000 000000
2018-09-08 06:06:00,-0.00,0.21,0.00,19.84,23.40,26.34,14.09,47.33,1017.61,2043.00,3209.56,2854.97,3297.59,599.79,602.84,10.23,0000 0000 0000 0000 000000
2018-09-08 06:11:02,0.00,0.21,0.00,19.84,23.41,26.38,14.03,47.34,1017.60,2043.00,3209.47,2854.98,3297.42,599.72,602.74,10.28,0000 0000 0000 0000 000000
2018-09-08 06:16:03,0.01,0.21,0.00,19.84,23.42,26.35,14.06,47.28,1017.63,2043.00,3209.17,2854.97,3297.14,599.92,603.03,10.33,0000 0000 0000 0000 000000
2018-09-08 06:21:04,0.00,0.21,0.00,19.84,23.42,26.37,14.18,47.39,1017.68,2043.00,3209.14,2854.94,3297.11,599.96,602.97,10.38,0000 0000 0000 0000 000000
2018-09-08 06:26:06,0.00,0.21,0.00,19.84,23.42,26.36,14.15,47.42,1017.68,2043.00,3209.05,2854.92,3297.08,599.82,602.90,10.43,0000 0000 0000 0000 000000
2018-09-08 06:31:07,0.00,0.21,0.00,19.85,23.42,26.35,14.10,47.37,1017.75,2043.00,3209.06,2854.91,3297.02,600.19,602.96,10.48,0000 0000 0000 0000 000000
2018-09-08 06:36:08,0.00,0.21,0.00,19.86,23.42,26.35,14.11,47.40,1017.91,2043.00,3209.02,2854.80,3297.00,599.81,603.02,10.53,0000 0000 0000 0000 000000
2018-09-08 06:41:09,-0.00,0.21,0.00,19.86,23.42,26.34,14.06,47.44,1017.93,2043.00,3209.01,2854.84,3297.00,599.66,602.94,10.58,0000 0000 0000 0000 000000
2018-09-08 06:46:10,0.00,0.21,0.00,19.87,23.42,26.41,14.02,47.35,1018.05,2043.00,3209.01,2854.88,3297.00,599.54,602.79,10.63,0000 0000 0000 0000 000000
2018-09-08 06:51:12,0.01,0.21,0.00,19.87,23.43,26.43,14.07,47.36,1018.04,2043.00,3209.00,2854.72,3297.00,599.86,602.99,10.68,0000 0000 0000 0000 000000
2018-09-08 06:56:13,-0.00,0.21,0.00,19.87,23.44,26.40,14.11,47.26,1018.02,2043.00,3209.00,2854.64,3297.00,600.12,603.48,10.73,0000 0000 0000 0000 000000
2018-09-08 07:01:14,0.01,0.21,0.00,19.87,23.45,26.40,14.11,47.32,1017.88,2043.00,3209.00,2854.23,3297.00,599.79,602.99,10.78,0000 0000 0000 0000 000000
2018-09-08 07:06:15,-0.00,0.21,0.00,19.87,23.45,26.34,14.10,47.32,1018.00,2043.00,3208.99,2854.44,3296.99,599.73,603.03,10.83,0000 0000 0000 0000 000000
2018-09-08 07:11:16,0.00,0.21,0.00,19.89,23.45,26.42,14.13,47.27,1017.89,2043.00,3208.99,2854.27,3296.98,600.17,603.40,10.88,0000 0000 0000 0000 000000
2018-09-08 07:16:17,0.00,0.21,0.00,19.88,23.45,26.41,14.06,47.34,1017.92,2043.00,3208.98,2854.23,3296.98,599.70,602.70,10.93,0000 0000 0000 0000 000000
2018-09-08 07:21:18,0.00,0.21,0.00,19.88,23.45,26.43,14.16,47.42,1018.04,2043.00,3208.95,2854.04,3296.91,599.81,603.10,10.98,0000 0000 0000 0000 000000
2018-09-08 07:26:19,0.00,0.21,0.00,19.89,23.45,26.42,14.10,47.34,1018.07,2043.00,3208.81,2854.04,3296.73,599.81,603.07,11.03,0000 0000 0000 0000 000000
2018-09-08 07:31:21,0.01,0.21,0.00,19.89,23.46,26.42,14.17,47.27,1018.09,2043.00,3208.55,2854.02,3296.43,600.24,603.44,11.08,0000 0000 0000 0000 000000
2018-09-08 07:36:22,0.00,0.21,0.00,19.89,23.47,26.44,14.13,47.41,1018.09,2042.99,3208.58,2854.02,3296.26,600.05,603.30,11.13,0000 0000 0000 0000 000000
2018-09-08 07:41:23,0.00,0.21,0.00,19.89,23.47,26.45,14.10,47.38,1018.11,2042.99,3208.43,2854.02,3296.13,600.08,603.29,11.18,0000 0000 0000 0000 000000
2018-09-08 07:46:24,0.00,0.21,0.00,19.89,23.47,26.46,14.15,47.44,1018.09,2042.99,3208.19,2854.01,3296.07,600.06,603.04,11.23,0000 0000 0000 0000 000000
2018-09-08 07:51:26,0.00,0.21,0.00,19.89,23.47,26.49,14.10,47.38,1018.09,2042.98,3208.12,2854.02,3296.04,599.93,603.08,11.28,0000 0000 0000 0000 000000
2018-09-08 07:56:27,0.00,0.21,0.00,19.90,23.47,26.45,14.08,47.34,1018.09,2042.99,3208.04,2854.01,3296.04,599.78,602.96,11.33,0000 0000 0000 0000 000000
2018-09-08 08:01:28,0.00,0.21,0.00,19.90,23.47,26.43,14.09,47.34,1018.10,2042.99,3208.02,2854.00,3296.01,599.91,603.12,11.38,0000 0000 0000 0000 000000
2018-09-08 08:06:29,0.00,0.21,0.00,19.90,23.47,26.46,14.08,47.32,1018.10,2042.98,3208.00,2854.00,3296.00,599.81,603.02,11.43,0000 0000 0000 0000 000000
2018-09-08 08:11:31,0.00,0.21,0.00,19.91,23.47,26.46,14.14,47.51,1018.20,2042.97,3208.00,2854.00,3296.00,600.06,603.31,11.48,0000 0000 0000 0000 000000
2018-09-08 08:16:32,0.00,0.21,0.00,19.92,23.48,26.44,14.17,47.52,1018.48,2042.98,3208.00,2854.00,3296.00,600.03,603.47,11.54,0000 0000 0000 0000 000000
2018-09-08 08:21:33,-0.00,0.21,0.00,19.92,23.49,26.46,14.10,47.46,1018.53,2042.97,3208.00,2854.00,3296.00,599.78,603.21,11.59,0000 0000 0000 0000 000000
2018-09-08 08:26:34,-0.00,0.21,0.00,19.90,23.49,26.52,14.19,47.52,1018.47,2042.97,3207.98,2854.00,3295.99,600.39,603.95,11.64,0000 0000 0000 0000 000000
2018-09-08 08:31:36,0.00,0.21,0.00,19.91,23.49,26.47,14.17,47.51,1018.51,2042.98,3207.98,2854.00,3295.99,600.14,603.55,11.69,0000 0000 0000 0000 000000
2018-09-08 08:36:37,0.00,0.21,0.00,19.92,23.50,26.46,14.19,47.39,1018.55,2042.98,3207.99,2854.00,3295.99,600.73,604.21,11.74,0000 0000 0000 0000 000000
2018-09-08 08:41:38,0.00,0.21,0.00,19.92,23.50,26.44,14.14,47.42,1018.56,2042.97,3207.97,2854.00,3295.96,599.75,603.22,11.79,0000 0000 0000 0000 000000
2018-09-08 08:46:39,0.00,0.21,0.00,19.92,23.50,26.48,14.08,47.41,1018.57,2042.99,3207.76,2854.00,3295.97,599.92,603.25,11.84,0000 0000 0000 0000 000000
2018-09-08 08:51:41,0.01,0.21,0.00,19.91,23.50,26.52,14.03,47.49,1018.56,2042.98,3207.05,2853.97,3295.77,599.47,603.01,11.89,0000 0000 0000 0000 000000
2018-09-08 08:56:42,0.00,0.21,0.00,19.92,23.50,26.49,14.13,47.42,1018.57,2042.99,3207.04,2853.98,3295.74,599.99,603.59,11.94,0000 0000 0000 0000 000000
2018-09-08 09:01:43,0.00,0.21,0.00,19.92,23.50,26.50,14.15,47.57,1018.57,2042.99,3207.06,2853.99,3295.62,599.85,603.28,11.99,0000 0000 0000 0000 000000
2018-09-08 09:06:44,0.01,0.21,0.00,19.92,23.50,26.48,14.12,47.62,1018.57,2042.98,3207.01,2853.98,3295.16,600.08,603.55,12.04,0000 0000 0000 0000 000000
2018-09-08 09:11:46,0.00,0.21,0.00,19.92,23.50,26.52,14.10,47.49,1018.57,2042.98,3207.00,2853.97,3295.04,599.57,603.13,12.09,0000 0000 0000 0000 000000
2018-09-08 09:16:47,-0.00,0.21,0.00,19.92,23.50,26.53,14.13,47.46,1018.57,2042.97,3207.00,2853.93,3295.02,599.75,603.20,12.14,0000 0000 0000 0000 000000
2018-09-08 09:21:48,-0.00,0.21,0.00,19.92,23.50,26.53,14.13,47.53,1018.58,2042.98,3207.00,2853.94,3295.01,599.99,603.46,12.19,0000 0000 0000 0000 000000
2018-09-08 09:26:49,0.00,0.21,0.00,19.92,23.50,26.53,14.14,47.53,1018.60,2042.99,3207.00,2853.86,3295.01,599.77,603.41,12.24,0000 0000 0000 0000 000000
2018-09-08 09:31:50,0.00,0.21,0.00,19.92,23.51,26.54,14.11,47.44,1018.60,2042.98,3206.98,2853.83,3295.00,599.96,603.38,12.29,0000 0000 0000 0000 000000
2018-09-08 09:36:51,0.00,0.21,0.00,19.92,23.51,26.53,14.12,47.42,1018.59,2042.99,3206.97,2853.85,3294.99,599.94,603.34,12.34,0000 0000 0000 0000 000000
2018-09-08 09:41:53,0.00,0.21,0.00,19.92,23.51,26.50,14.15,47.50,1018.59,2042.98,3206.94,2853.76,3294.98,600.18,603.57,12.39,0000 0000 0000 0000 000000
2018-09-08 09:46:54,-0.00,0.21,0.00,19.92,23.52,26.51,14.10,47.46,1018.60,2042.98,3206.94,2853.73,3294.99,600.11,603.71,12.44,0000 0000 0000 0000 000000
2018-09-08 09:51:55,0.00,0.21,0.00,19.92,23.52,26.53,14.18,47.52,1018.59,2042.98,3206.95,2853.79,3294.98,600.20,603.72,12.49,0000 0000 0000 0000 000000
2018-09-08 09:56:57,0.00,0.21,0.00,19.92,23.52,26.52,14.19,47.51,1018.59,2042.98,3206.92,2853.80,3294.98,600.34,603.82,12.54,0000 0000 0000 0000 000000
2018-09-08 10:01:57,0.00,0.21,0.00,19.92,23.52,26.53,14.14,47.40,1018.58,2042.98,3206.85,2853.76,3294.98,600.03,603.53,12.59,0000 0000 0000 0000 000000
2018-09-08 10:06:59,0.00,0.21,0.00,19.92,23.52,26.53,14.08,47.47,1018.57,2042.97,3206.66,2853.67,3294.96,600.21,603.70,12.64,0000 0000 0000 0000 000000
2018-09-08 10:12:00,-0.00,0.21,0.00,19.92,23.52,26.52,14.08,47.60,1018.57,2042.98,3206.60,2853.78,3294.97,599.97,603.48,12.69,0000 0000 0000 0000 000000
2018-09-08 10:17:01,-0.00,0.21,0.00,19.90,23.52,26.54,14.19,47.53,1018.57,2042.98,3206.60,2853.84,3294.91,600.24,603.68,12.74,0000 0000 0000 0000 000000
2018-09-08 10:22:02,0.00,0.22,0.00,19.91,23.52,26.54,14.14,47.57,1018.57,2042.96,3206.27,2853.73,3294.87,600.00,603.64,12.79,0000 0000 0000 0000 000000
2018-09-08 10:27:04,0.01,0.22,0.00,19.92,23.52,26.50,14.13,47.54,1018.57,2042.97,3206.19,2853.70,3294.80,600.28,603.77,12.84,0000 0000 0000 0000 000000
2018-09-08 10:32:05,0.00,0.22,0.00,19.92,23.52,26.50,14.13,47.40,1018.58,2042.97,3206.14,2853.71,3294.57,600.29,603.72,12.89,0000 0000 0000 0000 000000
2018-09-08 10:37:06,0.01,0.22,0.00,19.92,23.52,26.53,14.16,47.47,1018.59,2042.97,3206.03,2853.60,3294.25,599.86,603.35,12.94,0000 0000 0000 0000 000000
2018-09-08 10:42:08,0.00,0.22,0.00,19.90,23.52,26.57,14.16,47.46,1018.59,2042.96,3206.01,2853.38,3294.05,600.18,603.67,12.99,0000 0000 0000 0000 000000
2018-09-08 10:47:09,0.00,0.22,0.00,19.90,23.52,26.50,14.11,47.49,1018.62,2042.97,3206.00,2853.27,3294.03,599.89,603.37,13.04,0000 0000 0000 0000 000000
2018-09-08 10:52:10,-0.00,0.22,0.00,19.89,23.52,26.52,14.04,47.45,1018.85,2042.98,3206.01,2853.32,3294.04,599.57,603.24,13.09,0000 0000 0000 0000 000000
2018-09-08 10:57:12,0.00,0.22,0.00,19.90,23.52,26.53,14.06,47.49,1019.01,2042.96,3206.00,2853.17,3294.00,599.59,603.35,13.14,0000 0000 0000 0000 000000
2018-09-08 11:02:13,0.00,0.22,0.00,19.91,23.52,26.54,14.13,47.55,1019.04,2042.95,3205.98,2853.13,3294.00,599.79,603.57,13.19,0000 0000 0000 0000 000000
2018-09-08 11:07:14,0.00,0.22,0.00,19.90,23.52,26.52,14.16,47.56,1019.06,2042.96,3205.99,2853.09,3294.00,600.07,603.76,13.24,0000 0000 0000 0000 000000
2018-09-08 11:12:15,-0.00,0.22,0.00,19.91,23.52,26.57,14.23,47.47,1019.05,2042.97,3205.98,2853.07,3293.99,600.12,603.88,13.29,0000 0000 0000 0000 000000
2018-09-08 11:17:16,0.00,0.22,0.00,19.91,23.52,26.57,14.01,47.56,1019.06,2042.96,3205.90,2853.04,3293.99,599.62,603.34,13.34,0000 0000 0000 0000 000000
2018-09-08 11:22:17,-0.00,0.22,0.00,19.92,23.52,26.59,14.10,47.47,1019.05,2042.92,3205.86,2853.06,3293.98,600.00,603.70,13.39,0000 0000 0000 0000 000000
2018-09-08 11:27:18,0.01,0.22,0.00,19.91,23.52,26.51,14.05,47.51,1019.05,2042.96,3205.64,2853.07,3293.98,599.81,603.50,13.44,0000 0000 0000 0000 000000
2018-09-08 11:32:20,0.00,0.22,0.00,19.90,23.52,26.55,14.17,47.49,1019.01,2042.95,3205.49,2853.05,3293.96,599.90,603.78,13.49,0000 0000 0000 0000 000000
2018-09-08 11:37:21,-0.00,0.22,0.00,19.90,23.52,26.56,14.08,47.52,1019.04,2042.92,3205.38,2853.05,3293.96,599.91,603.70,13.54,0000 0000 0000 0000 000000
2018-09-08 11:42:22,-0.00,0.22,0.00,19.91,23.52,26.56,14.18,47.54,1019.05,2042.87,3205.20,2853.05,3293.90,600.29,604.02,13.59,0000 0000 0000 0000 000000
2018-09-08 11:47:24,0.00,0.22,0.00,19.90,23.52,26.52,14.08,47.52,1019.05,2042.84,3205.09,2853.02,3293.81,600.16,603.89,13.64,0000 0000 0000 0000 000000
2018-09-08 11:52:25,0.00,0.22,0.00,19.91,23.52,26.55,14.16,47.58,1019.06,2042.91,3205.18,2853.07,3293.86,599.98,603.76,13.69,0000 0000 0000 0000 000000
2018-09-08 11:57:26,-0.01,0.22,0.00,19.90,23.52,26.55,14.15,47.50,1019.06,2042.79,3205.03,2853.03,3293.43,600.21,603.84,13.74,0000 0000 0000 0000 000000
2018-09-08 12:02:28,0.01,0.22,0.00,19.89,23.52,26.54,14.13,47.51,1019.08,2042.91,3205.05,2853.04,3293.61,599.82,603.78,13.79,0000 0000 0000 0000 000000
2018-09-08 12:07:29,0.00,0.22,0.00,19.91,23.52,26.56,14.10,47.50,1019.09,2042.90,3205.03,2853.05,3293.35,599.94,603.70,13.84,0000 0000 0000 0000 000000
2018-09-08 12:12:30,-0.00,0.22,0.00,19.90,23.52,26.55,14.14,47.62,1019.16,2042.86,3205.02,2853.04,3293.21,599.69,603.57,13.90,0000 0000 0000 0000 000000
2018-09-08 12:17:31,-0.01,0.22,0.00,19.89,23.52,26.54,14.09,47.45,1019.18,2042.75,3205.00,2853.03,3293.07,599.93,603.87,13.95,0000 0000 0000 0000 000000
2018-09-08 12:22:32,-0.00,0.22,0.00,19.89,23.52,26.55,14.17,47.52,1019.30,2042.59,3204.58,2852.99,3292.99,600.21,604.25,14.00,0000 0000 0000 0000 000000
2018-09-08 12:27:34,0.06,0.22,0.00,19.90,23.52,26.58,14.20,47.51,1019.42,2042.85,3204.01,2852.81,3292.51,600.08,604.12,14.05,0000 0000 0000 0000 000000
2018-09-08 12:32:35,0.01,0.22,0.00,19.89,23.52,26.55,14.10,47.55,1019.43,2042.87,3203.98,2852.37,3292.05,599.46,603.56,14.10,0000 0000 0000 0000 000000
2018-09-08 12:37:36,0.01,0.22,0.00,19.89,23.52,26.55,14.15,47.61,1019.50,2042.92,3203.97,2852.38,3292.03,600.01,604.20,14.15,0000 0000 0000 0000 000000
2018-09-08 12:42:37,0.00,0.22,0.00,19.89,23.51,26.52,14.13,47.65,1019.47,2042.87,3203.94,2852.24,3292.01,599.53,603.60,14.20,0000 0000 0000 0000 000000
2018-09-08 12:47:38,-0.01,0.22,0.00,19.89,23.51,26.56,14.17,47.57,1019.44,2042.75,3203.86,2852.12,3292.00,600.29,604.35,14.25,0000 0000 0000 0000 000000
2018-09-08 12:52:39,0.01,0.22,0.00,19.89,23.51,26.55,14.17,47.55,1019.44,2042.85,3203.71,2852.21,3292.00,600.18,604.28,14.30,0000 0000 0000 0000 000000
2018-09-08 12:57:40,0.01,0.22,0.00,19.89,23.50,26.58,14.18,47.55,1019.42,2042.85,3203.27,2852.11,3292.00,600.17,604.20,14.35,0000 0000 0000 0000 000000